TimeAKDT,TemperatureF,Dew PointF,Humidity,Sea Level PressureIn,VisibilityMPH,Wind Direction,Wind SpeedMPH,Gust SpeedMPH,PrecipitationIn,Events,Conditions,WindDirDegrees,DateUTC
12:16 AM,21.2,10.4,63,30.09,10.0,Calm,Calm,-,N/A,,Overcast,0,2013-03-22 08:16:00
12:36 AM,21.2,10.4,63,30.09,10.0,Calm,Calm,-,N/A,,Overcast,0,2013-03-22 08:36:00
12:56 AM,21.2,10.4,63,30.08,10.0,Calm,Calm,-,N/A,,Overcast,0,2013-03-22 08:56:00
1:16 AM,21.2,10.4,63,30.07,10.0,Calm,Calm,-,N/A,,Overcast,0,2013-03-22 09:16:00
1:36 AM,21.2,10.4,63,30.06,10.0,Calm,Calm,-,N/A,,Overcast,0,2013-03-22 09:36:00
1:56 AM,21.2,10.4,63,30.06,10.0,Calm,Calm,-,N/A,,Overcast,0,2013-03-22 09:56:00
2:16 AM,21.2,12.2,68,30.04,10.0,Calm,Calm,-,N/A,,Overcast,0,2013-03-22 10:16:00
2:36 AM,21.2,10.4,63,30.04,10.0,Calm,Calm,-,N/A,,Overcast,0,2013-03-22 10:36:00
2:56 AM,21.2,12.2,68,30.04,10.0,Calm,Calm,-,N/A,,Overcast,0,2013-03-22 10:56:00
3:16 AM,21.2,12.2,68,30.02,10.0,Calm,Calm,-,N/A,,Overcast,0,2013-03-22 11:16:00
3:36 AM,21.2,10.4,63,30.02,10.0,Calm,Calm,-,N/A,,Overcast,0,2013-03-22 11:36:00
3:56 AM,21.2,12.2,68,30.01,10.0,West,3.5,-,N/A,,Overcast,280,2013-03-22 11:56:00
4:16 AM,21.2,12.2,68,30.00,10.0,West,6.9,-,N/A,,Overcast,280,2013-03-22 12:16:00
4:36 AM,21.2,14.0,74,30.00,10.0,West,8.1,-,N/A,,Overcast,260,2013-03-22 12:36:00
4:56 AM,21.2,15.8,80,30.00,10.0,Calm,Calm,-,N/A,,Overcast,0,2013-03-22 12:56:00
5:16 AM,21.2,15.8,80,29.99,10.0,West,3.5,-,N/A,,Overcast,280,2013-03-22 13:16:00
5:36 AM,23.0,19.4,86,29.99,10.0,Calm,Calm,-,N/A,,Overcast,0,2013-03-22 13:36:00
5:56 AM,21.2,19.4,93,29.98,10.0,NNW,3.5,-,N/A,,Overcast,330,2013-03-22 13:56:00
6:16 AM,21.2,17.6,86,29.98,10.0,Calm,Calm,-,N/A,,Overcast,0,2013-03-22 14:16:00
6:36 AM,21.2,17.6,86,29.98,10.0,Calm,Calm,-,N/A,,Overcast,0,2013-03-22 14:36:00
6:56 AM,21.2,17.6,86,29.98,10.0,Calm,Calm,-,N/A,,Mostly Cloudy,0,2013-03-22 14:56:00
7:16 AM,19.4,15.8,86,29.98,10.0,Calm,Calm,-,N/A,,Overcast,0,2013-03-22 15:16:00
7:36 AM,19.4,15.8,86,29.96,10.0,Calm,Calm,-,N/A,,Overcast,0,2013-03-22 15:36:00
7:56 AM,19.4,14.0,80,29.96,10.0,Calm,Calm,-,N/A,,Overcast,0,2013-03-22 15:56:00
8:16 AM,19.4,17.6,93,29.96,10.0,Calm,Calm,-,N/A,,Overcast,0,2013-03-22 16:16:00
8:36 AM,19.4,15.8,86,29.95,10.0,Calm,Calm,-,N/A,,Overcast,0,2013-03-22 16:36:00
8:56 AM,21.2,15.8,80,29.94,10.0,Calm,Calm,-,N/A,,Overcast,0,2013-03-22 16:56:00
9:16 AM,21.2,17.6,86,29.94,10.0,Calm,Calm,-,N/A,,Overcast,0,2013-03-22 17:16:00
9:36 AM,21.2,17.6,86,29.93,10.0,Calm,Calm,-,N/A,,Overcast,0,2013-03-22 17:36:00
9:56 AM,21.2,17.6,86,29.93,10.0,Calm,Calm,-,N/A,,Overcast,0,2013-03-22 17:56:00
10:16 AM,21.2,17.6,86,29.93,9.0,Calm,Calm,-,N/A,,Overcast,0,2013-03-22 18:16:00
10:36 AM,21.2,17.6,86,29.93,1.5,Calm,Calm,-,N/A,,Overcast,0,2013-03-22 18:36:00
10:56 AM,21.2,17.6,86,29.92,1.0,Calm,Calm,-,N/A,,Overcast,0,2013-03-22 18:56:00
11:16 AM,21.2,19.4,93,29.92,0.2,ENE,3.5,-,N/A,,Overcast,60,2013-03-22 19:16:00
11:36 AM,21.2,19.4,93,29.91,0.5,East,9.2,-,N/A,,Overcast,80,2013-03-22 19:36:00
11:56 AM,23.0,19.4,86,29.90,0.8,ESE,11.5,-,N/A,,Overcast,110,2013-03-22 19:56:00
12:16 PM,23.0,21.2,93,29.90,4.0,NNE,3.5,-,N/A,,Overcast,30,2013-03-22 20:16:00
12:36 PM,24.8,21.2,86,29.90,10.0,NW,3.5,-,0.01,,Overcast,310,2013-03-22 20:36:00
12:56 PM,24.8,21.2,86,29.90,10.0,West,6.9,-,0.01,,Overcast,270,2013-03-22 20:56:00
1:16 PM,26.6,21.2,80,29.90,10.0,Calm,Calm,-,N/A,,Overcast,0,2013-03-22 21:16:00
1:36 PM,28.4,24.8,86,29.89,10.0,Calm,Calm,-,N/A,,Overcast,0,2013-03-22 21:36:00
1:56 PM,28.4,24.8,86,29.89,10.0,East,4.6,-,N/A,,Overcast,80,2013-03-22 21:56:00
2:16 PM,30.2,26.6,86,29.88,10.0,East,4.6,-,N/A,,Overcast,80,2013-03-22 22:16:00
2:36 PM,30.2,26.6,86,29.87,4.0,ENE,3.5,-,N/A,,Overcast,70,2013-03-22 22:36:00
2:56 PM,32.0,26.6,80,29.87,10.0,NNE,4.6,-,N/A,,Overcast,30,2013-03-22 22:56:00
3:16 PM,32.0,26.6,80,29.87,10.0,Calm,Calm,-,N/A,,Overcast,0,2013-03-22 23:16:00
3:36 PM,33.8,28.4,81,29.86,10.0,Calm,Calm,-,N/A,,Overcast,0,2013-03-22 23:36:00
3:56 PM,33.8,26.6,75,29.86,10.0,Calm,Calm,-,N/A,,Overcast,0,2013-03-22 23:56:00
4:16 PM,33.8,28.4,81,29.85,10.0,Calm,Calm,-,N/A,,Overcast,0,2013-03-23 00:16:00
4:36 PM,33.8,28.4,81,29.85,10.0,West,10.4,-,N/A,,Overcast,270,2013-03-23 00:36:00
4:56 PM,30.2,26.6,86,29.85,10.0,WNW,8.1,-,N/A,,Overcast,290,2013-03-23 00:56:00
5:16 PM,30.2,26.6,86,29.84,10.0,WNW,5.8,-,N/A,,Overcast,300,2013-03-23 01:16:00
5:36 PM,30.2,26.6,86,29.84,10.0,WNW,5.8,-,N/A,,Overcast,290,2013-03-23 01:36:00
5:56 PM,32.0,26.6,80,29.83,10.0,South,3.5,-,N/A,,Mostly Cloudy,180,2013-03-23 01:56:00
6:16 PM,35.6,28.4,75,29.82,10.0,South,10.4,-,N/A,,Overcast,190,2013-03-23 02:16:00
6:36 PM,33.8,28.4,81,29.82,10.0,SW,5.8,-,N/A,,Overcast,230,2013-03-23 02:36:00
6:56 PM,33.8,28.4,81,29.82,10.0,West,10.4,-,N/A,,Overcast,280,2013-03-23 02:56:00
7:16 PM,30.2,26.6,86,29.82,7.0,West,10.4,-,N/A,,Overcast,270,2013-03-23 03:16:00
7:36 PM,30.2,24.8,80,29.82,2.5,West,8.1,-,N/A,,Overcast,280,2013-03-23 03:36:00
7:56 PM,28.4,26.6,93,29.82,8.0,WNW,6.9,-,N/A,,Mostly Cloudy,290,2013-03-23 03:56:00
8:16 PM,28.4,26.6,93,29.82,5.0,Calm,Calm,-,N/A,,Overcast,0,2013-03-23 04:16:00
8:36 PM,30.2,26.6,86,29.82,2.5,Calm,Calm,-,N/A,,Overcast,0,2013-03-23 04:36:00
8:56 PM,28.4,26.6,93,29.82,10.0,West,5.8,-,N/A,,Overcast,270,2013-03-23 04:56:00
9:16 PM,28.4,26.6,93,29.82,10.0,West,3.5,-,N/A,,Overcast,280,2013-03-23 05:16:00
9:36 PM,28.4,26.6,93,29.82,10.0,WSW,4.6,-,N/A,,Mostly Cloudy,250,2013-03-23 05:36:00
9:56 PM,28.4,26.6,93,29.82,10.0,WSW,5.8,-,N/A,,Overcast,240,2013-03-23 05:56:00
10:16 PM,28.4,26.6,93,29.82,10.0,SW,8.1,-,N/A,,Overcast,230,2013-03-23 06:16:00
10:36 PM,28.4,26.6,93,29.82,10.0,WSW,8.1,-,N/A,,Scattered Clouds,240,2013-03-23 06:36:00
10:56 PM,28.4,26.6,93,29.82,10.0,WSW,8.1,-,N/A,,Mostly Cloudy,240,2013-03-23 06:56:00
11:16 PM,28.4,26.6,93,29.81,10.0,SW,5.8,-,N/A,,Mostly Cloudy,220,2013-03-23 07:16:00
11:36 PM,26.6,24.8,93,29.81,10.0,SSE,3.5,-,N/A,,Partly Cloudy,150,2013-03-23 07:36:00
11:56 PM,24.8,23.0,93,29.81,2.5,ESE,3.5,-,N/A,,Clear,120,2013-03-23 07:56:00